owner,sensor,date,latitude,longitude,vertical_datum,sea_water_temperature,qcFlag 
DISL,ioos:station:DISL:CATA:1,2008-04-03T15:30:00Z,30.3085,-88.1395,0.0,21.18,2 
DISL,ioos:station:DISL:CATA:1,2008-04-03T16:00:00Z,30.3085,-88.1395,0.0,21.57,2 
DISL,ioos:station:DISL:CATA:1,2008-04-03T16:30:00Z,30.3085,-88.1395,0.0,21.89,2 
DISL,ioos:station:DISL:CATA:1,2008-04-03T17:00:00Z,30.3085,-88.1395,0.0,22.09,2 
DISL,ioos:station:DISL:CATA:1,2008-04-03T17:30:00Z,30.3085,-88.1395,0.0,22.27,2 
DISL,ioos:station:DISL:CATA:1,2008-04-03T18:00:00Z,30.3085,-88.1395,0.0,22.49,2 
DISL,ioos:station:DISL:CATA:1,2008-04-03T18:30:00Z,30.3085,-88.1395,0.0,22.66,2 
DISL,ioos:station:DISL:CATA:1,2008-04-03T19:00:00Z,30.3085,-88.1395,0.0,22.84,2 
DISL,ioos:station:DISL:CATA:1,2008-04-03T19:30:00Z,30.3085,-88.1395,0.0,22.95,2 
DISL,ioos:station:DISL:CATA:1,2008-04-03T20:00:00Z,30.3085,-88.1395,0.0,22.97,2 
DISL,ioos:station:DISL:CATA:1,2008-04-03T20:30:00Z,30.3085,-88.1395,0.0,23.02,2 
DISL,ioos:station:DISL:CATA:1,2008-04-03T21:00:00Z,30.3085,-88.1395,0.0,22.87,2 
DISL,ioos:station:DISL:CATA:1,2008-04-03T21:30:00Z,30.3085,-88.1395,0.0,22.66,2 
DISL,ioos:station:DISL:CATA:1,2008-04-03T22:00:00Z,30.3085,-88.1395,0.0,22.4,2 
DISL,ioos:station:DISL:CATA:1,2008-04-03T22:30:00Z,30.3085,-88.1395,0.0,22.4,2 
DISL,ioos:station:DISL:CATA:1,2008-04-03T23:00:00Z,30.3085,-88.1395,0.0,22.36,2 
DISL,ioos:station:DISL:CATA:1,2008-04-03T23:30:00Z,30.3085,-88.1395,0.0,22.24,2 
DISL,ioos:station:DISL:CATA:1,2008-04-04T00:00:00Z,30.3085,-88.1395,0.0,22.16,2 
DISL,ioos:station:DISL:CATA:1,2008-04-04T00:30:00Z,30.3085,-88.1395,0.0,22.11,2 
DISL,ioos:station:DISL:CATA:1,2008-04-04T01:00:00Z,30.3085,-88.1395,0.0,22.11,2 
DISL,ioos:station:DISL:CATA:1,2008-04-04T01:30:00Z,30.3085,-88.1395,0.0,22.11,2 
DISL,ioos:station:DISL:CATA:1,2008-04-04T02:00:00Z,30.3085,-88.1395,0.0,22.08,2 
DISL,ioos:station:DISL:CATA:1,2008-04-04T02:30:00Z,30.3085,-88.1395,0.0,22.08,2 
DISL,ioos:station:DISL:CATA:1,2008-04-04T03:00:00Z,30.3085,-88.1395,0.0,22.06,2 
DISL,ioos:station:DISL:CATA:1,2008-04-04T03:30:00Z,30.3085,-88.1395,0.0,22.02,2 
DISL,ioos:station:DISL:CATA:1,2008-04-04T04:00:00Z,30.3085,-88.1395,0.0,22.0,2 
DISL,ioos:station:DISL:CATA:1,2008-04-04T04:30:00Z,30.3085,-88.1395,0.0,21.92,2 
DISL,ioos:station:DISL:CATA:1,2008-04-04T05:00:00Z,30.3085,-88.1395,0.0,21.81,2 
DISL,ioos:station:DISL:CATA:1,2008-04-04T05:30:00Z,30.3085,-88.1395,0.0,21.72,2 
DISL,ioos:station:DISL:CATA:1,2008-04-04T06:00:00Z,30.3085,-88.1395,0.0,21.69,2 
DISL,ioos:station:DISL:CATA:1,2008-04-04T06:30:00Z,30.3085,-88.1395,0.0,21.72,2 
DISL,ioos:station:DISL:CATA:1,2008-04-04T07:00:00Z,30.3085,-88.1395,0.0,21.76,2 
DISL,ioos:station:DISL:CATA:1,2008-04-04T07:30:00Z,30.3085,-88.1395,0.0,21.78,2 
DISL,ioos:station:DISL:CATA:1,2008-04-04T08:00:00Z,30.3085,-88.1395,0.0,21.83,2 
DISL,ioos:station:DISL:CATA:1,2008-04-04T08:30:00Z,30.3085,-88.1395,0.0,21.88,2 
DISL,ioos:station:DISL:CATA:1,2008-04-04T09:00:00Z,30.3085,-88.1395,0.0,21.92,2 
DISL,ioos:station:DISL:CATA:1,2008-04-04T09:30:00Z,30.3085,-88.1395,0.0,21.95,2 
DISL,ioos:station:DISL:CATA:1,2008-04-04T10:00:00Z,30.3085,-88.1395,0.0,21.96,2 
DISL,ioos:station:DISL:CATA:1,2008-04-04T10:30:00Z,30.3085,-88.1395,0.0,21.96,2 
DISL,ioos:station:DISL:CATA:1,2008-04-04T11:00:00Z,30.3085,-88.1395,0.0,21.94,2 
DISL,ioos:station:DISL:CATA:1,2008-04-04T11:30:00Z,30.3085,-88.1395,0.0,21.93,2 
DISL,ioos:station:DISL:CATA:1,2008-04-04T12:00:00Z,30.3085,-88.1395,0.0,21.91,2 
DISL,ioos:station:DISL:CATA:1,2008-04-04T12:30:00Z,30.3085,-88.1395,0.0,21.88,2 
DISL,ioos:station:DISL:CATA:1,2008-04-04T13:00:00Z,30.3085,-88.1395,0.0,21.86,2 
DISL,ioos:station:DISL:CATA:1,2008-04-04T13:30:00Z,30.3085,-88.1395,0.0,21.85,2 
DISL,ioos:station:DISL:CATA:1,2008-04-04T14:00:00Z,30.3085,-88.1395,0.0,21.87,2 
DISL,ioos:station:DISL:CATA:1,2008-04-04T14:30:00Z,30.3085,-88.1395,0.0,21.9,2 
DISL,ioos:station:DISL:CATA:1,2008-04-04T15:00:00Z,30.3085,-88.1395,0.0,21.91,2 
DISL,ioos:station:DISL:CATA:1,2008-04-04T15:30:00Z,30.3085,-88.1395,0.0,21.99,2 
DISL,ioos:station:DISL:CATA:1,2008-04-04T16:00:00Z,30.3085,-88.1395,0.0,22.1,2 
DISL,ioos:station:DISL:CATA:1,2008-04-04T16:30:00Z,30.3085,-88.1395,0.0,22.05,2 
DISL,ioos:station:DISL:CATA:1,2008-04-04T17:00:00Z,30.3085,-88.1395,0.0,22.08,2 
DISL,ioos:station:DISL:CATA:1,2008-04-04T17:30:00Z,30.3085,-88.1395,0.0,22.16,2 
DISL,ioos:station:DISL:CATA:1,2008-04-04T18:00:00Z,30.3085,-88.1395,0.0,22.15,2 
DISL,ioos:station:DISL:CATA:1,2008-04-04T18:30:00Z,30.3085,-88.1395,0.0,22.13,2 
DISL,ioos:station:DISL:CATA:1,2008-04-04T19:00:00Z,30.3085,-88.1395,0.0,22.37,2 
DISL,ioos:station:DISL:CATA:1,2008-04-04T19:30:00Z,30.3085,-88.1395,0.0,22.54,2 
DISL,ioos:station:DISL:CATA:1,2008-04-04T20:00:00Z,30.3085,-88.1395,0.0,22.78,2 
DISL,ioos:station:DISL:CATA:1,2008-04-04T20:30:00Z,30.3085,-88.1395,0.0,22.85,2 
DISL,ioos:station:DISL:CATA:1,2008-04-04T21:00:00Z,30.3085,-88.1395,0.0,22.95,2 
DISL,ioos:station:DISL:CATA:1,2008-04-04T21:30:00Z,30.3085,-88.1395,0.0,22.89,2 
DISL,ioos:station:DISL:CATA:1,2008-04-04T22:00:00Z,30.3085,-88.1395,0.0,22.85,2 
DISL,ioos:station:DISL:CATA:1,2008-04-04T22:30:00Z,30.3085,-88.1395,0.0,22.82,2 
DISL,ioos:station:DISL:CATA:1,2008-04-04T23:00:00Z,30.3085,-88.1395,0.0,22.86,2 
DISL,ioos:station:DISL:CATA:1,2008-04-04T23:30:00Z,30.3085,-88.1395,0.0,22.95,2 
DISL,ioos:station:DISL:CATA:1,2008-04-05T00:00:00Z,30.3085,-88.1395,0.0,23.04,2 
DISL,ioos:station:DISL:CATA:1,2008-04-05T00:30:00Z,30.3085,-88.1395,0.0,22.99,2 
DISL,ioos:station:DISL:CATA:1,2008-04-05T01:00:00Z,30.3085,-88.1395,0.0,22.99,2 
DISL,ioos:station:DISL:CATA:1,2008-04-05T01:30:00Z,30.3085,-88.1395,0.0,22.98,2 
DISL,ioos:station:DISL:CATA:1,2008-04-05T02:00:00Z,30.3085,-88.1395,0.0,22.95,2 
DISL,ioos:station:DISL:CATA:1,2008-04-05T02:30:00Z,30.3085,-88.1395,0.0,22.94,2 
DISL,ioos:station:DISL:CATA:1,2008-04-05T03:00:00Z,30.3085,-88.1395,0.0,22.86,2 
DISL,ioos:station:DISL:CATA:1,2008-04-05T03:30:00Z,30.3085,-88.1395,0.0,22.87,2 
DISL,ioos:station:DISL:CATA:1,2008-04-05T04:00:00Z,30.3085,-88.1395,0.0,22.9,2 
DISL,ioos:station:DISL:CATA:1,2008-04-05T04:30:00Z,30.3085,-88.1395,0.0,22.94,2 
DISL,ioos:station:DISL:CATA:1,2008-04-05T05:00:00Z,30.3085,-88.1395,0.0,22.95,2 
DISL,ioos:station:DISL:CATA:1,2008-04-05T05:30:00Z,30.3085,-88.1395,0.0,23.11,2 
DISL,ioos:station:DISL:CATA:1,2008-04-05T06:00:00Z,30.3085,-88.1395,0.0,23.28,2 
DISL,ioos:station:DISL:CATA:1,2008-04-05T06:30:00Z,30.3085,-88.1395,0.0,23.34,2 
DISL,ioos:station:DISL:CATA:1,2008-04-05T07:00:00Z,30.3085,-88.1395,0.0,23.3,2 
DISL,ioos:station:DISL:CATA:1,2008-04-05T07:30:00Z,30.3085,-88.1395,0.0,23.25,2 
DISL,ioos:station:DISL:CATA:1,2008-04-05T08:00:00Z,30.3085,-88.1395,0.0,23.21,2 
DISL,ioos:station:DISL:CATA:1,2008-04-05T08:30:00Z,30.3085,-88.1395,0.0,23.18,2 
DISL,ioos:station:DISL:CATA:1,2008-04-05T09:00:00Z,30.3085,-88.1395,0.0,23.16,2 
DISL,ioos:station:DISL:CATA:1,2008-04-05T09:30:00Z,30.3085,-88.1395,0.0,23.26,2 
DISL,ioos:station:DISL:CATA:1,2008-04-05T10:00:00Z,30.3085,-88.1395,0.0,23.01,2 
DISL,ioos:station:DISL:CATA:1,2008-04-05T10:30:00Z,30.3085,-88.1395,0.0,22.77,2 
DISL,ioos:station:DISL:CATA:1,2008-04-05T11:00:00Z,30.3085,-88.1395,0.0,22.85,2 
DISL,ioos:station:DISL:CATA:1,2008-04-05T11:30:00Z,30.3085,-88.1395,0.0,22.77,2 
DISL,ioos:station:DISL:CATA:1,2008-04-05T12:00:00Z,30.3085,-88.1395,0.0,22.73,2 
DISL,ioos:station:DISL:CATA:1,2008-04-05T12:30:00Z,30.3085,-88.1395,0.0,22.73,2 
DISL,ioos:station:DISL:CATA:1,2008-04-05T13:00:00Z,30.3085,-88.1395,0.0,22.65,2 
DISL,ioos:station:DISL:CATA:1,2008-04-05T13:30:00Z,30.3085,-88.1395,0.0,22.61,2 
DISL,ioos:station:DISL:CATA:1,2008-04-05T14:00:00Z,30.3085,-88.1395,0.0,22.48,2 
DISL,ioos:station:DISL:CATA:1,2008-04-05T14:30:00Z,30.3085,-88.1395,0.0,22.43,2 
DISL,ioos:station:DISL:CATA:1,2008-04-05T15:00:00Z,30.3085,-88.1395,0.0,22.48,2 
DISL,ioos:station:DISL:CATA:1,2008-04-05T15:30:00Z,30.3085,-88.1395,0.0,22.51,2 
DISL,ioos:station:DISL:CATA:1,2008-04-05T16:00:00Z,30.3085,-88.1395,0.0,22.58,2 
DISL,ioos:station:DISL:CATA:1,2008-04-05T16:30:00Z,30.3085,-88.1395,0.0,22.71,2 
DISL,ioos:station:DISL:CATA:1,2008-04-05T17:00:00Z,30.3085,-88.1395,0.0,22.74,2 
DISL,ioos:station:DISL:CATA:1,2008-04-05T17:30:00Z,30.3085,-88.1395,0.0,22.54,2 
DISL,ioos:station:DISL:CATA:1,2008-04-05T18:00:00Z,30.3085,-88.1395,0.0,22.45,2 
DISL,ioos:station:DISL:CATA:1,2008-04-05T18:30:00Z,30.3085,-88.1395,0.0,22.43,2 
DISL,ioos:station:DISL:CATA:1,2008-04-05T19:00:00Z,30.3085,-88.1395,0.0,22.58,2 
DISL,ioos:station:DISL:CATA:1,2008-04-05T19:30:00Z,30.3085,-88.1395,0.0,22.72,2 
DISL,ioos:station:DISL:CATA:1,2008-04-05T20:00:00Z,30.3085,-88.1395,0.0,22.76,2 
DISL,ioos:station:DISL:CATA:1,2008-04-05T20:30:00Z,30.3085,-88.1395,0.0,22.76,2 
DISL,ioos:station:DISL:CATA:1,2008-04-05T21:00:00Z,30.3085,-88.1395,0.0,22.76,2 
DISL,ioos:station:DISL:CATA:1,2008-04-05T21:30:00Z,30.3085,-88.1395,0.0,22.75,2 
DISL,ioos:station:DISL:CATA:1,2008-04-05T22:00:00Z,30.3085,-88.1395,0.0,22.75,2 
DISL,ioos:station:DISL:CATA:1,2008-04-05T22:30:00Z,30.3085,-88.1395,0.0,22.71,2 
DISL,ioos:station:DISL:CATA:1,2008-04-05T23:00:00Z,30.3085,-88.1395,0.0,22.67,2 
DISL,ioos:station:DISL:CATA:1,2008-04-05T23:30:00Z,30.3085,-88.1395,0.0,22.63,2 
DISL,ioos:station:DISL:CATA:1,2008-04-06T00:00:00Z,30.3085,-88.1395,0.0,22.56,2 
DISL,ioos:station:DISL:CATA:1,2008-04-06T00:30:00Z,30.3085,-88.1395,0.0,22.54,2 
DISL,ioos:station:DISL:CATA:1,2008-04-06T01:00:00Z,30.3085,-88.1395,0.0,22.49,2 
DISL,ioos:station:DISL:CATA:1,2008-04-06T01:30:00Z,30.3085,-88.1395,0.0,22.46,2 
DISL,ioos:station:DISL:CATA:1,2008-04-06T02:00:00Z,30.3085,-88.1395,0.0,22.4,2 
DISL,ioos:station:DISL:CATA:1,2008-04-06T02:30:00Z,30.3085,-88.1395,0.0,22.37,2 
DISL,ioos:station:DISL:CATA:1,2008-04-06T03:00:00Z,30.3085,-88.1395,0.0,22.27,2 
DISL,ioos:station:DISL:CATA:1,2008-04-06T03:30:00Z,30.3085,-88.1395,0.0,22.19,2 
DISL,ioos:station:DISL:CATA:1,2008-04-06T04:00:00Z,30.3085,-88.1395,0.0,22.12,2 
DISL,ioos:station:DISL:CATA:1,2008-04-06T04:30:00Z,30.3085,-88.1395,0.0,21.98,2 
DISL,ioos:station:DISL:CATA:1,2008-04-06T05:00:00Z,30.3085,-88.1395,0.0,21.9,2 
DISL,ioos:station:DISL:CATA:1,2008-04-06T05:30:00Z,30.3085,-88.1395,0.0,21.81,2 
DISL,ioos:station:DISL:CATA:1,2008-04-06T06:00:00Z,30.3085,-88.1395,0.0,21.72,2 
DISL,ioos:station:DISL:CATA:1,2008-04-06T06:30:00Z,30.3085,-88.1395,0.0,21.75,2 
DISL,ioos:station:DISL:CATA:1,2008-04-06T07:00:00Z,30.3085,-88.1395,0.0,21.87,2 
DISL,ioos:station:DISL:CATA:1,2008-04-06T07:30:00Z,30.3085,-88.1395,0.0,21.61,2 
DISL,ioos:station:DISL:CATA:1,2008-04-06T08:00:00Z,30.3085,-88.1395,0.0,21.53,2 
DISL,ioos:station:DISL:CATA:1,2008-04-06T08:30:00Z,30.3085,-88.1395,0.0,21.51,2 
DISL,ioos:station:DISL:CATA:1,2008-04-06T09:00:00Z,30.3085,-88.1395,0.0,21.44,2 
DISL,ioos:station:DISL:CATA:1,2008-04-06T09:30:00Z,30.3085,-88.1395,0.0,21.46,2 
DISL,ioos:station:DISL:CATA:1,2008-04-06T10:00:00Z,30.3085,-88.1395,0.0,21.99,2 
DISL,ioos:station:DISL:CATA:1,2008-04-06T10:30:00Z,30.3085,-88.1395,0.0,22.03,2 
DISL,ioos:station:DISL:CATA:1,2008-04-06T11:00:00Z,30.3085,-88.1395,0.0,22.08,2 
DISL,ioos:station:DISL:CATA:1,2008-04-06T11:30:00Z,30.3085,-88.1395,0.0,22.1,2 
DISL,ioos:station:DISL:CATA:1,2008-04-06T12:00:00Z,30.3085,-88.1395,0.0,22.08,2 
DISL,ioos:station:DISL:CATA:1,2008-04-06T12:30:00Z,30.3085,-88.1395,0.0,22.07,2 
DISL,ioos:station:DISL:CATA:1,2008-04-06T13:00:00Z,30.3085,-88.1395,0.0,22.05,2 
DISL,ioos:station:DISL:CATA:1,2008-04-06T13:30:00Z,30.3085,-88.1395,0.0,22.03,2 
DISL,ioos:station:DISL:CATA:1,2008-04-06T14:00:00Z,30.3085,-88.1395,0.0,21.91,2 
DISL,ioos:station:DISL:CATA:1,2008-04-06T14:30:00Z,30.3085,-88.1395,0.0,21.79,2 
DISL,ioos:station:DISL:CATA:1,2008-04-06T15:00:00Z,30.3085,-88.1395,0.0,21.64,2 
DISL,ioos:station:DISL:CATA:1,2008-04-06T15:30:00Z,30.3085,-88.1395,0.0,21.7,2 
DISL,ioos:station:DISL:CATA:1,2008-04-06T16:00:00Z,30.3085,-88.1395,0.0,21.76,2 
DISL,ioos:station:DISL:CATA:1,2008-04-06T16:30:00Z,30.3085,-88.1395,0.0,21.81,2 
DISL,ioos:station:DISL:CATA:1,2008-04-06T17:00:00Z,30.3085,-88.1395,0.0,21.93,2 
DISL,ioos:station:DISL:CATA:1,2008-04-06T17:30:00Z,30.3085,-88.1395,0.0,21.97,2 
DISL,ioos:station:DISL:CATA:1,2008-04-06T18:00:00Z,30.3085,-88.1395,0.0,21.98,2 
DISL,ioos:station:DISL:CATA:1,2008-04-06T18:30:00Z,30.3085,-88.1395,0.0,21.93,2 
DISL,ioos:station:DISL:CATA:1,2008-04-06T19:00:00Z,30.3085,-88.1395,0.0,22.02,2 
DISL,ioos:station:DISL:CATA:1,2008-04-06T19:30:00Z,30.3085,-88.1395,0.0,22.08,2 
DISL,ioos:station:DISL:CATA:1,2008-04-06T20:00:00Z,30.3085,-88.1395,0.0,22.39,2 
DISL,ioos:station:DISL:CATA:1,2008-04-06T20:30:00Z,30.3085,-88.1395,0.0,22.43,2 
DISL,ioos:station:DISL:CATA:1,2008-04-06T21:00:00Z,30.3085,-88.1395,0.0,22.44,2 
DISL,ioos:station:DISL:CATA:1,2008-04-06T21:30:00Z,30.3085,-88.1395,0.0,22.41,2 
DISL,ioos:station:DISL:CATA:1,2008-04-06T22:00:00Z,30.3085,-88.1395,0.0,22.36,2 
DISL,ioos:station:DISL:CATA:1,2008-04-06T22:30:00Z,30.3085,-88.1395,0.0,22.35,2 
DISL,ioos:station:DISL:CATA:1,2008-04-06T23:00:00Z,30.3085,-88.1395,0.0,22.41,2 
DISL,ioos:station:DISL:CATA:1,2008-04-06T23:30:00Z,30.3085,-88.1395,0.0,22.46,2 
DISL,ioos:station:DISL:CATA:1,2008-04-07T00:00:00Z,30.3085,-88.1395,0.0,22.46,2 
DISL,ioos:station:DISL:CATA:1,2008-04-07T00:30:00Z,30.3085,-88.1395,0.0,22.5,2 
DISL,ioos:station:DISL:CATA:1,2008-04-07T01:00:00Z,30.3085,-88.1395,0.0,22.44,2 
DISL,ioos:station:DISL:CATA:1,2008-04-07T01:30:00Z,30.3085,-88.1395,0.0,22.35,2 
DISL,ioos:station:DISL:CATA:1,2008-04-07T02:00:00Z,30.3085,-88.1395,0.0,22.3,2 
DISL,ioos:station:DISL:CATA:1,2008-04-07T02:30:00Z,30.3085,-88.1395,0.0,22.29,2 
DISL,ioos:station:DISL:CATA:1,2008-04-07T03:00:00Z,30.3085,-88.1395,0.0,22.31,2 
DISL,ioos:station:DISL:CATA:1,2008-04-07T03:30:00Z,30.3085,-88.1395,0.0,22.25,2 
DISL,ioos:station:DISL:CATA:1,2008-04-07T04:00:00Z,30.3085,-88.1395,0.0,22.18,2 
DISL,ioos:station:DISL:CATA:1,2008-04-07T04:30:00Z,30.3085,-88.1395,0.0,22.08,2 
DISL,ioos:station:DISL:CATA:1,2008-04-07T05:00:00Z,30.3085,-88.1395,0.0,22.01,2 
DISL,ioos:station:DISL:CATA:1,2008-04-07T05:30:00Z,30.3085,-88.1395,0.0,21.98,2 
DISL,ioos:station:DISL:CATA:1,2008-04-07T06:00:00Z,30.3085,-88.1395,0.0,21.99,2 
DISL,ioos:station:DISL:CATA:1,2008-04-07T06:30:00Z,30.3085,-88.1395,0.0,21.96,2 
DISL,ioos:station:DISL:CATA:1,2008-04-07T07:00:00Z,30.3085,-88.1395,0.0,21.94,2 
DISL,ioos:station:DISL:CATA:1,2008-04-07T07:30:00Z,30.3085,-88.1395,0.0,21.95,2 
DISL,ioos:station:DISL:CATA:1,2008-04-07T08:00:00Z,30.3085,-88.1395,0.0,21.91,2 
DISL,ioos:station:DISL:CATA:1,2008-04-07T08:30:00Z,30.3085,-88.1395,0.0,21.84,2 
DISL,ioos:station:DISL:CATA:1,2008-04-07T09:00:00Z,30.3085,-88.1395,0.0,21.92,2 
DISL,ioos:station:DISL:CATA:1,2008-04-07T09:30:00Z,30.3085,-88.1395,0.0,22.28,2 
DISL,ioos:station:DISL:CATA:1,2008-04-07T10:00:00Z,30.3085,-88.1395,0.0,22.33,2 
DISL,ioos:station:DISL:CATA:1,2008-04-07T10:30:00Z,30.3085,-88.1395,0.0,22.14,2 
DISL,ioos:station:DISL:CATA:1,2008-04-07T11:00:00Z,30.3085,-88.1395,0.0,22.03,2 
DISL,ioos:station:DISL:CATA:1,2008-04-07T11:30:00Z,30.3085,-88.1395,0.0,22.14,2 
DISL,ioos:station:DISL:CATA:1,2008-04-07T12:00:00Z,30.3085,-88.1395,0.0,22.15,2 
DISL,ioos:station:DISL:CATA:1,2008-04-07T12:30:00Z,30.3085,-88.1395,0.0,22.11,2 
DISL,ioos:station:DISL:CATA:1,2008-04-07T13:00:00Z,30.3085,-88.1395,0.0,22.11,2 
DISL,ioos:station:DISL:CATA:1,2008-04-07T13:30:00Z,30.3085,-88.1395,0.0,22.11,2 
DISL,ioos:station:DISL:CATA:1,2008-04-07T14:00:00Z,30.3085,-88.1395,0.0,22.1,2 
DISL,ioos:station:DISL:CATA:1,2008-04-07T14:30:00Z,30.3085,-88.1395,0.0,22.08,2 
DISL,ioos:station:DISL:CATA:1,2008-04-07T15:00:00Z,30.3085,-88.1395,0.0,22.05,2 
DISL,ioos:station:DISL:CATA:1,2008-04-07T15:30:00Z,30.3085,-88.1395,0.0,22.02,2 
DISL,ioos:station:DISL:CATA:1,2008-04-07T16:00:00Z,30.3085,-88.1395,0.0,22.02,2 
DISL,ioos:station:DISL:CATA:1,2008-04-07T16:30:00Z,30.3085,-88.1395,0.0,22.03,2 
DISL,ioos:station:DISL:CATA:1,2008-04-07T17:00:00Z,30.3085,-88.1395,0.0,22.02,2 
DISL,ioos:station:DISL:CATA:1,2008-04-07T17:30:00Z,30.3085,-88.1395,0.0,22.04,2 
DISL,ioos:station:DISL:CATA:1,2008-04-07T18:00:00Z,30.3085,-88.1395,0.0,22.05,2 
DISL,ioos:station:DISL:CATA:1,2008-04-07T18:30:00Z,30.3085,-88.1395,0.0,22.21,2 
DISL,ioos:station:DISL:CATA:1,2008-04-07T19:00:00Z,30.3085,-88.1395,0.0,22.71,2 
DISL,ioos:station:DISL:CATA:1,2008-04-07T19:30:00Z,30.3085,-88.1395,0.0,23.06,2 
DISL,ioos:station:DISL:CATA:1,2008-04-07T20:00:00Z,30.3085,-88.1395,0.0,23.24,2 
DISL,ioos:station:DISL:CATA:1,2008-04-07T20:30:00Z,30.3085,-88.1395,0.0,23.53,2 
DISL,ioos:station:DISL:CATA:1,2008-04-07T21:00:00Z,30.3085,-88.1395,0.0,23.7,2 
DISL,ioos:station:DISL:CATA:1,2008-04-07T21:30:00Z,30.3085,-88.1395,0.0,23.79,2 
DISL,ioos:station:DISL:CATA:1,2008-04-07T22:00:00Z,30.3085,-88.1395,0.0,23.88,2 
DISL,ioos:station:DISL:CATA:1,2008-04-07T22:30:00Z,30.3085,-88.1395,0.0,23.95,2 
DISL,ioos:station:DISL:CATA:1,2008-04-07T23:00:00Z,30.3085,-88.1395,0.0,23.92,2 
DISL,ioos:station:DISL:CATA:1,2008-04-07T23:30:00Z,30.3085,-88.1395,0.0,23.8,2 
DISL,ioos:station:DISL:CATA:1,2008-04-08T00:00:00Z,30.3085,-88.1395,0.0,23.69,2 
DISL,ioos:station:DISL:CATA:1,2008-04-08T00:30:00Z,30.3085,-88.1395,0.0,23.62,2 
DISL,ioos:station:DISL:CATA:1,2008-04-08T01:00:00Z,30.3085,-88.1395,0.0,23.49,2 
DISL,ioos:station:DISL:CATA:1,2008-04-08T01:30:00Z,30.3085,-88.1395,0.0,23.39,2 
DISL,ioos:station:DISL:CATA:1,2008-04-08T02:00:00Z,30.3085,-88.1395,0.0,23.35,2 
DISL,ioos:station:DISL:CATA:1,2008-04-08T02:30:00Z,30.3085,-88.1395,0.0,23.26,2 
DISL,ioos:station:DISL:CATA:1,2008-04-08T03:00:00Z,30.3085,-88.1395,0.0,23.27,2 
DISL,ioos:station:DISL:CATA:1,2008-04-08T03:30:00Z,30.3085,-88.1395,0.0,23.26,2 
DISL,ioos:station:DISL:CATA:1,2008-04-08T04:00:00Z,30.3085,-88.1395,0.0,23.12,2 
DISL,ioos:station:DISL:CATA:1,2008-04-08T04:30:00Z,30.3085,-88.1395,0.0,23.06,2 
DISL,ioos:station:DISL:CATA:1,2008-04-08T05:00:00Z,30.3085,-88.1395,0.0,23.02,2 
DISL,ioos:station:DISL:CATA:1,2008-04-08T05:30:00Z,30.3085,-88.1395,0.0,22.98,2 
DISL,ioos:station:DISL:CATA:1,2008-04-08T06:00:00Z,30.3085,-88.1395,0.0,22.89,2 
DISL,ioos:station:DISL:CATA:1,2008-04-08T06:30:00Z,30.3085,-88.1395,0.0,22.77,2 
DISL,ioos:station:DISL:CATA:1,2008-04-08T07:00:00Z,30.3085,-88.1395,0.0,22.66,2 
DISL,ioos:station:DISL:CATA:1,2008-04-08T07:30:00Z,30.3085,-88.1395,0.0,22.64,2 
DISL,ioos:station:DISL:CATA:1,2008-04-08T08:00:00Z,30.3085,-88.1395,0.0,22.61,2 
DISL,ioos:station:DISL:CATA:1,2008-04-08T08:30:00Z,30.3085,-88.1395,0.0,22.56,2 
DISL,ioos:station:DISL:CATA:1,2008-04-08T09:00:00Z,30.3085,-88.1395,0.0,22.53,2 
DISL,ioos:station:DISL:CATA:1,2008-04-08T09:30:00Z,30.3085,-88.1395,0.0,22.49,2 
DISL,ioos:station:DISL:CATA:1,2008-04-08T10:00:00Z,30.3085,-88.1395,0.0,22.45,2 
DISL,ioos:station:DISL:CATA:1,2008-04-08T10:30:00Z,30.3085,-88.1395,0.0,22.41,2 
DISL,ioos:station:DISL:CATA:1,2008-04-08T11:00:00Z,30.3085,-88.1395,0.0,22.23,2 
DISL,ioos:station:DISL:CATA:1,2008-04-08T11:30:00Z,30.3085,-88.1395,0.0,22.33,2 
DISL,ioos:station:DISL:CATA:1,2008-04-08T12:00:00Z,30.3085,-88.1395,0.0,22.27,2 
DISL,ioos:station:DISL:CATA:1,2008-04-08T12:30:00Z,30.3085,-88.1395,0.0,22.17,2 
DISL,ioos:station:DISL:CATA:1,2008-04-08T13:00:00Z,30.3085,-88.1395,0.0,22.04,2 
DISL,ioos:station:DISL:CATA:1,2008-04-08T13:30:00Z,30.3085,-88.1395,0.0,21.95,2 
DISL,ioos:station:DISL:CATA:1,2008-04-08T14:00:00Z,30.3085,-88.1395,0.0,21.98,2 
DISL,ioos:station:DISL:CATA:1,2008-04-08T14:30:00Z,30.3085,-88.1395,0.0,22.12,2 
DISL,ioos:station:DISL:CATA:1,2008-04-08T15:00:00Z,30.3085,-88.1395,0.0,22.24,2 
DISL,ioos:station:DISL:CATA:1,2008-04-08T15:30:00Z,30.3085,-88.1395,0.0,22.23,2 
DISL,ioos:station:DISL:CATA:1,2008-04-08T16:00:00Z,30.3085,-88.1395,0.0,22.26,2 
DISL,ioos:station:DISL:CATA:1,2008-04-08T16:30:00Z,30.3085,-88.1395,0.0,22.32,2 
DISL,ioos:station:DISL:CATA:1,2008-04-08T17:00:00Z,30.3085,-88.1395,0.0,22.36,2 
DISL,ioos:station:DISL:CATA:1,2008-04-08T17:30:00Z,30.3085,-88.1395,0.0,22.27,2 
DISL,ioos:station:DISL:CATA:1,2008-04-08T18:00:00Z,30.3085,-88.1395,0.0,22.29,2 
DISL,ioos:station:DISL:CATA:1,2008-04-08T18:30:00Z,30.3085,-88.1395,0.0,22.34,2 
DISL,ioos:station:DISL:CATA:1,2008-04-08T19:00:00Z,30.3085,-88.1395,0.0,22.63,2 
DISL,ioos:station:DISL:CATA:1,2008-04-08T19:30:00Z,30.3085,-88.1395,0.0,22.86,2 
DISL,ioos:station:DISL:CATA:1,2008-04-08T20:00:00Z,30.3085,-88.1395,0.0,22.95,2 
DISL,ioos:station:DISL:CATA:1,2008-04-08T20:30:00Z,30.3085,-88.1395,0.0,22.77,2 
DISL,ioos:station:DISL:CATA:1,2008-04-08T21:00:00Z,30.3085,-88.1395,0.0,22.79,2 
DISL,ioos:station:DISL:CATA:1,2008-04-08T21:30:00Z,30.3085,-88.1395,0.0,22.67,2 
DISL,ioos:station:DISL:CATA:1,2008-04-08T22:00:00Z,30.3085,-88.1395,0.0,22.54,2 
DISL,ioos:station:DISL:CATA:1,2008-04-08T22:30:00Z,30.3085,-88.1395,0.0,22.52,2 
DISL,ioos:station:DISL:CATA:1,2008-04-08T23:00:00Z,30.3085,-88.1395,0.0,22.73,2 
DISL,ioos:station:DISL:CATA:1,2008-04-08T23:30:00Z,30.3085,-88.1395,0.0,22.81,2 
DISL,ioos:station:DISL:CATA:1,2008-04-09T00:00:00Z,30.3085,-88.1395,0.0,22.72,2 
DISL,ioos:station:DISL:CATA:1,2008-04-09T00:30:00Z,30.3085,-88.1395,0.0,22.77,2 
DISL,ioos:station:DISL:CATA:1,2008-04-09T01:00:00Z,30.3085,-88.1395,0.0,22.59,2 
DISL,ioos:station:DISL:CATA:1,2008-04-09T01:30:00Z,30.3085,-88.1395,0.0,22.48,2 
DISL,ioos:station:DISL:CATA:1,2008-04-09T02:00:00Z,30.3085,-88.1395,0.0,22.39,2 
DISL,ioos:station:DISL:CATA:1,2008-04-09T02:30:00Z,30.3085,-88.1395,0.0,22.32,2 
DISL,ioos:station:DISL:CATA:1,2008-04-09T03:00:00Z,30.3085,-88.1395,0.0,22.22,2 
DISL,ioos:station:DISL:CATA:1,2008-04-09T03:30:00Z,30.3085,-88.1395,0.0,22.16,2 
DISL,ioos:station:DISL:CATA:1,2008-04-09T04:00:00Z,30.3085,-88.1395,0.0,22.1,2 
DISL,ioos:station:DISL:CATA:1,2008-04-09T04:30:00Z,30.3085,-88.1395,0.0,22.03,2 
DISL,ioos:station:DISL:CATA:1,2008-04-09T05:00:00Z,30.3085,-88.1395,0.0,21.99,2 
DISL,ioos:station:DISL:CATA:1,2008-04-09T05:30:00Z,30.3085,-88.1395,0.0,21.97,2 
DISL,ioos:station:DISL:CATA:1,2008-04-09T06:00:00Z,30.3085,-88.1395,0.0,21.95,2 
DISL,ioos:station:DISL:CATA:1,2008-04-09T06:30:00Z,30.3085,-88.1395,0.0,21.86,2 
DISL,ioos:station:DISL:CATA:1,2008-04-09T07:00:00Z,30.3085,-88.1395,0.0,21.81,2 
DISL,ioos:station:DISL:CATA:1,2008-04-09T07:30:00Z,30.3085,-88.1395,0.0,21.79,2 
DISL,ioos:station:DISL:CATA:1,2008-04-09T08:00:00Z,30.3085,-88.1395,0.0,21.79,2 
DISL,ioos:station:DISL:CATA:1,2008-04-09T08:30:00Z,30.3085,-88.1395,0.0,21.75,2 
DISL,ioos:station:DISL:CATA:1,2008-04-09T09:00:00Z,30.3085,-88.1395,0.0,21.71,2 
DISL,ioos:station:DISL:CATA:1,2008-04-09T09:30:00Z,30.3085,-88.1395,0.0,21.69,2 
DISL,ioos:station:DISL:CATA:1,2008-04-09T10:00:00Z,30.3085,-88.1395,0.0,21.68,2 
DISL,ioos:station:DISL:CATA:1,2008-04-09T10:30:00Z,30.3085,-88.1395,0.0,21.66,2 
DISL,ioos:station:DISL:CATA:1,2008-04-09T11:00:00Z,30.3085,-88.1395,0.0,21.63,2 
DISL,ioos:station:DISL:CATA:1,2008-04-09T11:30:00Z,30.3085,-88.1395,0.0,21.59,2 
DISL,ioos:station:DISL:CATA:1,2008-04-09T12:00:00Z,30.3085,-88.1395,0.0,21.56,2 
DISL,ioos:station:DISL:CATA:1,2008-04-09T12:30:00Z,30.3085,-88.1395,0.0,21.62,2 
DISL,ioos:station:DISL:CATA:1,2008-04-09T13:00:00Z,30.3085,-88.1395,0.0,21.57,2 
DISL,ioos:station:DISL:CATA:1,2008-04-09T13:30:00Z,30.3085,-88.1395,0.0,21.52,2 
DISL,ioos:station:DISL:CATA:1,2008-04-09T14:00:00Z,30.3085,-88.1395,0.0,21.53,2 
DISL,ioos:station:DISL:CATA:1,2008-04-09T14:30:00Z,30.3085,-88.1395,0.0,21.54,2 
DISL,ioos:station:DISL:CATA:1,2008-04-09T15:00:00Z,30.3085,-88.1395,0.0,21.59,2 
DISL,ioos:station:DISL:CATA:1,2008-04-09T15:30:00Z,30.3085,-88.1395,0.0,21.7,2 
DISL,ioos:station:DISL:CATA:1,2008-04-09T16:00:00Z,30.3085,-88.1395,0.0,21.73,2 
DISL,ioos:station:DISL:CATA:1,2008-04-09T16:30:00Z,30.3085,-88.1395,0.0,21.76,2 
DISL,ioos:station:DISL:CATA:1,2008-04-09T17:00:00Z,30.3085,-88.1395,0.0,21.83,2 
DISL,ioos:station:DISL:CATA:1,2008-04-09T17:30:00Z,30.3085,-88.1395,0.0,21.86,2 
DISL,ioos:station:DISL:CATA:1,2008-04-09T18:00:00Z,30.3085,-88.1395,0.0,21.94,2 
DISL,ioos:station:DISL:CATA:1,2008-04-09T18:30:00Z,30.3085,-88.1395,0.0,21.95,2 